Time,TemperatureF,DewpointF,PressureIn,WindDirection,WindDirectionDegrees,WindSpeedMPH,WindSpeedGustMPH,Humidity,HourlyPrecipIn,Conditions,Clouds,dailyrainin,SoftwareType,DateUTC
2013-02-22 00:01:00,30.0,29.0,29.90,ESE,107,8.0,15.0,96,0.00,,,0.00,,2013-02-22 06:01:00,
2013-02-22 00:12:00,30.0,29.0,29.90,ESE,107,8.0,15.0,96,0.00,,,0.00,,2013-02-22 06:12:00,
2013-02-22 00:22:00,31.0,30.0,29.89,SSE,160,7.0,15.0,96,0.00,,,0.00,,2013-02-22 06:22:00,
2013-02-22 00:31:00,31.0,30.0,29.89,SE,141,6.0,12.0,96,0.00,,,0.00,,2013-02-22 06:31:00,
2013-02-22 00:42:00,31.0,30.0,29.89,SE,141,6.0,12.0,96,0.00,,,0.00,,2013-02-22 06:42:00,
2013-02-22 00:51:00,31.0,30.0,29.89,ESE,121,8.0,15.0,96,0.00,,,0.00,,2013-02-22 06:51:00,
2013-02-22 01:01:00,31.0,30.0,29.89,ESE,117,7.0,14.0,96,0.00,,,0.00,,2013-02-22 07:01:00,
2013-02-22 01:11:00,31.0,30.0,29.89,ESE,117,7.0,14.0,96,0.00,,,0.00,,2013-02-22 07:11:00,
2013-02-22 01:21:00,31.0,30.0,29.89,ESE,117,6.0,12.0,96,0.00,,,0.00,,2013-02-22 07:21:00,
2013-02-22 01:31:00,31.0,30.0,29.88,ESE,104,4.0,10.0,96,0.00,,,0.00,,2013-02-22 07:31:00,
2013-02-22 01:42:00,31.0,30.0,29.88,ESE,104,4.0,10.0,96,0.00,,,0.00,,2013-02-22 07:42:00,
2013-02-22 01:51:00,31.0,30.0,29.88,ESE,123,5.0,12.0,96,0.00,,,0.00,,2013-02-22 07:51:00,
2013-02-22 02:01:00,31.0,30.0,29.88,ESE,105,5.0,8.0,96,0.00,,,0.00,,2013-02-22 08:01:00,
2013-02-22 02:11:00,31.0,30.0,29.88,ESE,105,5.0,8.0,96,0.00,,,0.00,,2013-02-22 08:11:00,
2013-02-22 02:21:00,31.0,30.0,29.87,SE,142,3.0,9.0,96,0.00,,,0.00,,2013-02-22 08:21:00,
2013-02-22 02:31:00,31.0,30.0,29.86,ESE,109,3.0,7.0,96,0.00,,,0.00,,2013-02-22 08:31:00,
2013-02-22 02:41:00,31.0,30.0,29.86,ESE,109,3.0,7.0,96,0.00,,,0.00,,2013-02-22 08:41:00,
2013-02-22 02:52:00,31.0,30.0,29.86,SE,141,3.0,8.0,96,0.00,,,0.00,,2013-02-22 08:52:00,
2013-02-22 03:03:00,31.0,30.0,29.85,SE,134,4.0,7.0,96,0.00,,,0.00,,2013-02-22 09:03:00,
2013-02-22 03:11:00,31.0,30.0,29.85,ESE,123,3.0,7.0,97,0.00,,,0.00,,2013-02-22 09:11:00,
2013-02-22 03:21:00,31.0,30.0,29.85,ESE,123,3.0,7.0,97,0.00,,,0.00,,2013-02-22 09:21:00,
2013-02-22 03:32:00,31.0,30.0,29.84,SE,134,3.0,9.0,97,0.00,,,0.00,,2013-02-22 09:32:00,
2013-02-22 03:42:00,31.0,30.0,29.84,SE,134,3.0,9.0,97,0.00,,,0.00,,2013-02-22 09:42:00,
2013-02-22 03:51:00,31.0,30.0,29.84,SE,136,2.0,5.0,97,0.00,,,0.00,,2013-02-22 09:51:00,
2013-02-22 04:01:00,31.0,30.0,29.83,SSE,153,3.0,6.0,97,0.00,,,0.00,,2013-02-22 10:01:00,
2013-02-22 04:11:00,31.0,30.0,29.83,SSE,153,3.0,6.0,97,0.00,,,0.00,,2013-02-22 10:11:00,
2013-02-22 04:21:00,31.0,30.0,29.83,SSE,155,4.0,7.0,97,0.00,,,0.00,,2013-02-22 10:21:00,
2013-02-22 04:32:00,31.0,30.0,29.83,SSE,159,3.0,7.0,97,0.00,,,0.00,,2013-02-22 10:32:00,
2013-02-22 04:42:00,31.0,30.0,29.83,SSE,159,3.0,7.0,97,0.00,,,0.00,,2013-02-22 10:42:00,
2013-02-22 04:51:00,31.0,30.0,29.83,SE,144,3.0,5.0,97,0.00,,,0.00,,2013-02-22 10:51:00,
2013-02-22 05:01:00,31.0,30.0,29.83,SSE,166,2.0,5.0,97,0.00,,,0.00,,2013-02-22 11:01:00,
2013-02-22 05:11:00,31.0,30.0,29.83,SSE,166,2.0,5.0,97,0.00,,,0.00,,2013-02-22 11:11:00,
2013-02-22 05:21:00,31.0,30.0,29.83,SSE,166,2.0,5.0,97,0.00,,,0.00,,2013-02-22 11:21:00,
2013-02-22 05:32:00,31.0,30.0,29.83,SSE,155,2.0,5.0,97,0.00,,,0.00,,2013-02-22 11:32:00,
2013-02-22 05:42:00,31.0,30.0,29.83,SSE,155,2.0,5.0,97,0.00,,,0.00,,2013-02-22 11:42:00,
2013-02-22 05:52:00,31.0,30.0,29.83,SSE,153,2.0,4.0,97,0.00,,,0.00,,2013-02-22 11:52:00,
2013-02-22 06:02:00,31.0,30.0,29.83,South,173,2.0,5.0,97,0.00,,,0.00,,2013-02-22 12:02:00,
2013-02-22 06:11:00,31.0,30.0,29.83,South,173,2.0,5.0,97,0.00,,,0.00,,2013-02-22 12:11:00,
2013-02-22 06:22:00,31.0,30.0,29.83,South,173,2.0,5.0,97,0.00,,,0.00,,2013-02-22 12:22:00,
2013-02-22 06:32:00,31.0,30.0,29.83,South,171,3.0,5.0,97,0.00,,,0.00,,2013-02-22 12:32:00,
2013-02-22 06:42:00,31.0,30.0,29.83,South,171,3.0,5.0,97,0.00,,,0.00,,2013-02-22 12:42:00,
2013-02-22 06:52:00,31.0,30.0,29.82,South,182,2.0,5.0,97,0.00,,,0.00,,2013-02-22 12:52:00,
2013-02-22 07:02:00,32.0,31.0,29.83,SSE,165,4.0,7.0,97,0.00,,,0.00,,2013-02-22 13:02:00,
2013-02-22 07:11:00,32.0,31.0,29.83,SSE,165,4.0,7.0,97,0.00,,,0.00,,2013-02-22 13:11:00,
2013-02-22 07:22:00,32.0,31.0,29.83,SSW,206,3.0,7.0,97,0.00,,,0.00,,2013-02-22 13:22:00,
2013-02-22 07:32:00,32.0,31.0,29.84,South,182,4.0,9.0,97,0.00,,,0.00,,2013-02-22 13:32:00,
2013-02-22 07:42:00,32.0,31.0,29.84,South,182,4.0,9.0,97,0.00,,,0.00,,2013-02-22 13:42:00,
2013-02-22 07:52:00,32.0,31.0,29.84,SSW,209,5.0,9.0,97,0.00,,,0.00,,2013-02-22 13:52:00,
2013-02-22 08:01:00,32.0,31.0,29.84,South,185,5.0,10.0,97,0.00,,,0.00,,2013-02-22 14:01:00,
2013-02-22 08:11:00,32.0,31.0,29.85,SW,221,7.0,9.0,97,0.00,,,0.00,,2013-02-22 14:11:00,
2013-02-22 08:21:00,32.0,31.0,29.85,SW,221,7.0,9.0,97,0.00,,,0.00,,2013-02-22 14:21:00,
2013-02-22 08:32:00,32.0,31.0,29.85,SSW,192,6.0,11.0,97,0.00,,,0.00,,2013-02-22 14:32:00,
2013-02-22 08:42:00,32.0,31.0,29.85,SSW,192,6.0,11.0,97,0.00,,,0.00,,2013-02-22 14:42:00,
2013-02-22 08:52:00,32.0,31.0,29.86,SW,217,8.0,12.0,97,0.00,,,0.00,,2013-02-22 14:52:00,
2013-02-22 09:01:00,32.0,31.0,29.86,SW,221,8.0,12.0,97,0.00,,,0.00,,2013-02-22 15:01:00,
2013-02-22 09:11:00,32.0,31.0,29.86,SW,221,8.0,12.0,97,0.00,,,0.00,,2013-02-22 15:11:00,
2013-02-22 09:21:00,32.0,31.0,29.86,SW,221,9.0,14.0,97,0.00,,,0.00,,2013-02-22 15:21:00,
2013-02-22 09:32:00,32.0,31.0,29.86,SSW,208,8.0,12.0,97,0.00,,,0.00,,2013-02-22 15:32:00,
2013-02-22 09:41:00,32.0,31.0,29.86,SSW,208,8.0,12.0,97,0.00,,,0.00,,2013-02-22 15:41:00,
2013-02-22 09:52:00,32.0,31.0,29.87,SW,215,9.0,15.0,97,0.00,,,0.00,,2013-02-22 15:52:00,
2013-02-22 10:01:00,32.0,31.0,29.87,SW,221,11.0,16.0,97,0.00,,,0.00,,2013-02-22 16:01:00,
2013-02-22 10:12:00,32.0,31.0,29.87,SW,221,11.0,16.0,97,0.00,,,0.00,,2013-02-22 16:12:00,
2013-02-22 10:21:00,33.0,32.0,29.88,SW,217,10.0,16.0,97,0.00,,,0.00,,2013-02-22 16:21:00,
2013-02-22 10:32:00,33.0,32.0,29.88,SW,232,11.0,17.0,97,0.00,,,0.00,,2013-02-22 16:32:00,
2013-02-22 10:42:00,33.0,32.0,29.88,SW,232,11.0,17.0,97,0.00,,,0.00,,2013-02-22 16:42:00,
2013-02-22 10:52:00,33.0,32.0,29.88,WSW,246,12.0,21.0,96,0.00,,,0.00,,2013-02-22 16:52:00,
2013-02-22 11:01:00,33.0,32.0,29.89,SSW,202,11.0,16.0,96,0.00,,,0.00,,2013-02-22 17:01:00,
2013-02-22 11:11:00,33.0,32.0,29.89,SSW,202,11.0,16.0,96,0.00,,,0.00,,2013-02-22 17:11:00,
2013-02-22 11:21:00,33.0,32.0,29.89,WSW,245,10.0,20.0,95,0.00,,,0.00,,2013-02-22 17:21:00,
2013-02-22 11:32:00,33.0,31.0,29.89,WSW,248,8.0,17.0,94,0.00,,,0.00,,2013-02-22 17:32:00,
2013-02-22 11:42:00,33.0,31.0,29.89,WSW,248,8.0,17.0,94,0.00,,,0.00,,2013-02-22 17:42:00,
2013-02-22 11:52:00,33.0,31.0,29.90,SW,228,10.0,16.0,94,0.00,,,0.00,,2013-02-22 17:52:00,
2013-02-22 12:01:00,33.0,31.0,29.90,West,265,9.0,16.0,94,0.01,,,0.01,,2013-02-22 18:01:00,
2013-02-22 12:12:00,33.0,31.0,29.90,West,265,9.0,16.0,94,0.01,,,0.01,,2013-02-22 18:12:00,
2013-02-22 12:22:00,33.0,31.0,29.91,WSW,252,12.0,19.0,94,0.01,,,0.01,,2013-02-22 18:22:00,
2013-02-22 12:32:00,33.0,31.0,29.91,WSW,252,12.0,19.0,94,0.01,,,0.01,,2013-02-22 18:32:00,
2013-02-22 12:42:00,33.0,31.0,29.91,WSW,252,12.0,19.0,94,0.01,,,0.01,,2013-02-22 18:42:00,
2013-02-22 12:51:00,33.0,31.0,29.91,WSW,246,9.0,16.0,93,0.03,,,0.03,,2013-02-22 18:51:00,
2013-02-22 13:01:00,33.0,31.0,29.91,WSW,245,9.0,19.0,93,0.03,,,0.04,,2013-02-22 19:01:00,
2013-02-22 13:11:00,32.0,30.0,29.91,WSW,254,10.0,15.0,92,0.04,,,0.05,,2013-02-22 19:11:00,
2013-02-22 13:21:00,32.0,30.0,29.91,WSW,254,10.0,15.0,92,0.04,,,0.05,,2013-02-22 19:21:00,
2013-02-22 13:31:00,33.0,30.0,29.91,SW,234,9.0,18.0,90,0.11,,,0.13,,2013-02-22 19:31:00,
2013-02-22 13:41:00,33.0,30.0,29.91,SW,234,9.0,18.0,90,0.11,,,0.13,,2013-02-22 19:41:00,
2013-02-22 13:52:00,32.0,29.0,29.91,SW,236,12.0,23.0,89,0.11,,,0.14,,2013-02-22 19:52:00,
2013-02-22 14:01:00,32.0,29.0,29.91,West,259,11.0,21.0,88,0.10,,,0.14,,2013-02-22 20:01:00,
2013-02-22 14:11:00,32.0,29.0,29.91,West,259,11.0,21.0,88,0.10,,,0.14,,2013-02-22 20:11:00,
2013-02-22 14:21:00,32.0,29.0,29.92,WSW,256,9.0,24.0,89,0.10,,,0.15,,2013-02-22 20:21:00,
2013-02-22 14:32:00,32.0,29.0,29.92,West,263,11.0,18.0,88,0.02,,,0.15,,2013-02-22 20:32:00,
2013-02-22 14:41:00,32.0,29.0,29.92,West,263,11.0,18.0,88,0.02,,,0.15,,2013-02-22 20:41:00,
2013-02-22 14:52:00,32.0,28.0,29.92,West,264,12.0,21.0,86,0.01,,,0.15,,2013-02-22 20:52:00,
2013-02-22 15:01:00,32.0,28.0,29.92,West,266,15.0,27.0,84,0.01,,,0.15,,2013-02-22 21:01:00,
2013-02-22 15:11:00,32.0,28.0,29.92,West,266,15.0,27.0,84,0.01,,,0.15,,2013-02-22 21:11:00,
2013-02-22 15:21:00,32.0,28.0,29.93,West,259,11.0,22.0,84,0.00,,,0.15,,2013-02-22 21:21:00,
2013-02-22 15:32:00,32.0,28.0,29.93,WSW,242,12.0,21.0,84,0.00,,,0.15,,2013-02-22 21:32:00,
2013-02-22 15:42:00,32.0,28.0,29.93,WSW,242,12.0,21.0,84,0.00,,,0.15,,2013-02-22 21:42:00,
2013-02-22 15:52:00,31.0,27.0,29.94,West,267,10.0,16.0,84,0.00,,,0.15,,2013-02-22 21:52:00,
2013-02-22 16:01:00,31.0,26.0,29.94,WSW,256,13.0,21.0,81,0.00,,,0.15,,2013-02-22 22:01:00,
2013-02-22 16:11:00,31.0,26.0,29.94,WSW,256,13.0,21.0,81,0.00,,,0.15,,2013-02-22 22:11:00,
2013-02-22 16:21:00,31.0,26.0,29.95,WSW,242,11.0,18.0,82,0.00,,,0.15,,2013-02-22 22:21:00,
2013-02-22 16:31:00,31.0,26.0,29.95,West,267,13.0,20.0,82,0.00,,,0.15,,2013-02-22 22:31:00,
2013-02-22 16:41:00,31.0,26.0,29.95,West,267,13.0,20.0,82,0.00,,,0.15,,2013-02-22 22:41:00,
2013-02-22 16:51:00,30.0,26.0,29.96,West,273,10.0,16.0,85,0.00,,,0.15,,2013-02-22 22:51:00,
2013-02-22 17:01:00,29.0,25.0,29.96,West,273,12.0,21.0,84,0.00,,,0.15,,2013-02-22 23:01:00,
2013-02-22 17:11:00,29.0,25.0,29.96,West,273,12.0,21.0,84,0.00,,,0.15,,2013-02-22 23:11:00,
2013-02-22 17:21:00,29.0,25.0,29.97,WSW,256,10.0,17.0,85,0.00,,,0.15,,2013-02-22 23:21:00,
2013-02-22 17:31:00,29.0,24.0,29.97,WSW,255,14.0,20.0,82,0.00,,,0.15,,2013-02-22 23:31:00,
2013-02-22 17:41:00,29.0,24.0,29.97,WSW,255,14.0,20.0,82,0.00,,,0.15,,2013-02-22 23:41:00,
2013-02-22 17:52:00,29.0,24.0,29.98,WSW,257,9.0,16.0,81,0.00,,,0.15,,2013-02-22 23:52:00,
2013-02-22 18:01:00,29.0,24.0,29.98,West,271,8.0,15.0,81,0.00,,,0.15,,2013-02-23 00:01:00,
2013-02-22 18:11:00,29.0,24.0,29.98,West,271,8.0,15.0,81,0.00,,,0.15,,2013-02-23 00:11:00,
2013-02-22 18:21:00,29.0,25.0,29.99,West,263,11.0,17.0,85,0.00,,,0.15,,2013-02-23 00:21:00,
2013-02-22 18:32:00,28.0,24.0,30.00,West,262,11.0,17.0,84,0.00,,,0.15,,2013-02-23 00:32:00,
2013-02-22 18:42:00,28.0,24.0,30.00,West,262,11.0,17.0,84,0.00,,,0.15,,2013-02-23 00:42:00,
2013-02-22 18:51:00,28.0,24.0,30.01,West,271,12.0,23.0,83,0.00,,,0.15,,2013-02-23 00:51:00,
2013-02-22 19:01:00,28.0,24.0,30.01,West,267,11.0,17.0,84,0.00,,,0.15,,2013-02-23 01:01:00,
2013-02-22 19:11:00,28.0,24.0,30.01,West,267,11.0,17.0,84,0.00,,,0.15,,2013-02-23 01:11:00,
2013-02-22 19:21:00,27.0,23.0,30.02,West,259,9.0,15.0,84,0.00,,,0.15,,2013-02-23 01:21:00,
2013-02-22 19:31:00,27.0,23.0,30.02,WSW,246,8.0,15.0,84,0.00,,,0.15,,2013-02-23 01:31:00,
2013-02-22 19:42:00,27.0,23.0,30.02,WSW,246,8.0,15.0,84,0.00,,,0.15,,2013-02-23 01:42:00,
2013-02-22 19:51:00,27.0,23.0,30.01,West,263,9.0,15.0,84,0.00,,,0.15,,2013-02-23 01:51:00,
2013-02-22 20:01:00,27.0,23.0,30.01,WSW,248,10.0,16.0,84,0.00,,,0.15,,2013-02-23 02:01:00,
2013-02-22 20:11:00,27.0,23.0,30.01,WSW,247,9.0,14.0,84,0.00,,,0.15,,2013-02-23 02:11:00,
2013-02-22 20:21:00,27.0,23.0,30.01,WSW,247,9.0,14.0,84,0.00,,,0.15,,2013-02-23 02:21:00,
2013-02-22 20:32:00,27.0,23.0,30.01,WSW,252,7.0,14.0,85,0.00,,,0.15,,2013-02-23 02:32:00,
2013-02-22 20:42:00,27.0,23.0,30.01,WSW,252,7.0,14.0,85,0.00,,,0.15,,2013-02-23 02:42:00,
2013-02-22 20:52:00,27.0,23.0,30.01,WSW,246,9.0,14.0,86,0.00,,,0.15,,2013-02-23 02:52:00,
2013-02-22 21:01:00,27.0,24.0,30.01,SW,232,7.0,15.0,87,0.00,,,0.15,,2013-02-23 03:01:00,
2013-02-22 21:11:00,27.0,24.0,30.01,SW,232,7.0,15.0,87,0.00,,,0.15,,2013-02-23 03:11:00,
2013-02-22 21:21:00,27.0,24.0,30.02,SW,226,6.0,14.0,87,0.00,,,0.15,,2013-02-23 03:21:00,
2013-02-22 21:32:00,27.0,24.0,30.02,WSW,257,8.0,15.0,87,0.00,,,0.15,,2013-02-23 03:32:00,
2013-02-22 21:41:00,27.0,24.0,30.02,WSW,257,8.0,15.0,87,0.00,,,0.15,,2013-02-23 03:41:00,
2013-02-22 21:51:00,26.0,23.0,30.02,WSW,256,7.0,12.0,87,0.00,,,0.15,,2013-02-23 03:51:00,
2013-02-22 22:01:00,26.0,23.0,30.02,WSW,246,7.0,13.0,87,0.00,,,0.15,,2013-02-23 04:01:00,
2013-02-22 22:11:00,26.0,23.0,30.02,WSW,246,7.0,13.0,87,0.00,,,0.15,,2013-02-23 04:11:00,
2013-02-22 22:21:00,26.0,23.0,30.02,WSW,248,6.0,13.0,87,0.00,,,0.15,,2013-02-23 04:21:00,
2013-02-22 22:31:00,26.0,23.0,30.02,WSW,248,6.0,13.0,87,0.00,,,0.15,,2013-02-23 04:31:00,
2013-02-22 22:41:00,26.0,23.0,30.02,WSW,248,6.0,13.0,87,0.00,,,0.15,,2013-02-23 04:41:00,
2013-02-22 22:51:00,26.0,23.0,30.03,West,261,6.0,11.0,87,0.00,,,0.15,,2013-02-23 04:51:00,
2013-02-22 23:03:00,26.0,23.0,30.03,WSW,248,6.0,12.0,87,0.00,,,0.15,,2013-02-23 05:03:00,
2013-02-22 23:12:00,26.0,23.0,30.03,WSW,248,6.0,12.0,87,0.00,,,0.15,,2013-02-23 05:12:00,
2013-02-22 23:22:00,26.0,23.0,30.03,WSW,249,6.0,11.0,87,0.00,,,0.15,,2013-02-23 05:22:00,
2013-02-22 23:32:00,26.0,22.0,30.03,WSW,248,6.0,11.0,86,0.00,,,0.15,,2013-02-23 05:32:00,
2013-02-22 23:41:00,26.0,22.0,30.03,WSW,248,6.0,11.0,86,0.00,,,0.15,,2013-02-23 05:41:00,
2013-02-22 23:52:00,26.0,23.0,30.03,WSW,237,6.0,12.0,87,0.00,,,0.15,,2013-02-23 05:52:00,